Time,TemperatureF,DewpointF,PressureIn,WindDirection,WindDirectionDegrees,WindSpeedMPH,WindSpeedGustMPH,Humidity,HourlyPrecipIn,Conditions,Clouds,dailyrainin,SoftwareType,DateUTC
2013-02-23 00:00:00,30.0,25.2,30.00,West,270,0.0,7.0,82,0.00,,,0.00,Weather View 32 v70,2013-02-23 05:00:00,
2013-02-23 00:10:00,29.0,23.9,30.00,SE,135,0.0,6.0,81,0.00,,,0.00,Weather View 32 v70,2013-02-23 05:10:00,
2013-02-23 00:15:00,29.0,23.9,30.00,South,180,1.0,6.0,81,0.00,,,0.00,Weather View 32 v70,2013-02-23 05:15:00,
2013-02-23 00:20:00,29.0,24.2,30.00,SE,135,1.0,6.0,82,0.00,,,0.00,Weather View 32 v70,2013-02-23 05:20:00,
2013-02-23 00:25:00,29.0,24.2,30.00,West,270,1.0,6.0,82,0.00,,,0.00,Weather View 32 v70,2013-02-23 05:25:00,
2013-02-23 00:30:00,29.0,24.5,30.00,West,270,2.0,6.0,83,0.00,,,0.00,Weather View 32 v70,2013-02-23 05:30:00,
2013-02-23 00:35:00,29.0,24.2,30.00,West,270,2.0,6.0,82,0.00,,,0.00,Weather View 32 v70,2013-02-23 05:35:00,
2013-02-23 00:40:00,29.0,24.2,30.00,West,270,1.0,6.0,82,0.00,,,0.00,Weather View 32 v70,2013-02-23 05:40:00,
2013-02-23 00:45:00,29.0,24.2,30.00,West,270,0.0,6.0,82,0.00,,,0.00,Weather View 32 v70,2013-02-23 05:45:00,
2013-02-23 00:50:00,28.0,23.2,30.00,WSW,247,0.0,6.0,82,0.00,,,0.00,Weather View 32 v70,2013-02-23 05:50:00,
2013-02-23 00:55:00,28.0,23.8,30.00,WSW,247,0.0,5.0,84,0.00,,,0.00,Weather View 32 v70,2013-02-23 05:55:00,
2013-02-23 01:00:00,28.0,24.4,30.00,WSW,247,0.0,5.0,86,0.00,,,0.00,Weather View 32 v70,2013-02-23 06:00:00,
2013-02-23 01:05:00,28.0,24.6,29.99,WSW,247,0.0,5.0,87,0.00,,,0.00,Weather View 32 v70,2013-02-23 06:05:00,
2013-02-23 01:10:00,27.0,23.6,29.99,WSW,247,0.0,5.0,87,0.00,,,0.00,Weather View 32 v70,2013-02-23 06:10:00,
2013-02-23 01:15:00,27.0,24.2,30.00,WSW,247,0.0,5.0,89,0.00,,,0.00,Weather View 32 v70,2013-02-23 06:15:00,
2013-02-23 01:20:00,27.0,23.9,30.00,WSW,247,0.0,5.0,88,0.00,,,0.00,Weather View 32 v70,2013-02-23 06:20:00,
2013-02-23 01:25:00,28.0,24.6,29.99,WSW,247,0.0,5.0,87,0.00,,,0.00,Weather View 32 v70,2013-02-23 06:25:00,
2013-02-23 01:30:00,28.0,24.9,29.99,WSW,247,0.0,5.0,88,0.00,,,0.00,Weather View 32 v70,2013-02-23 06:30:00,
2013-02-23 01:35:00,28.0,24.9,29.98,WSW,247,0.0,5.0,88,0.00,,,0.00,Weather View 32 v70,2013-02-23 06:35:00,
2013-02-23 01:40:00,27.0,23.9,29.98,WSW,247,0.0,3.0,88,0.00,,,0.00,Weather View 32 v70,2013-02-23 06:40:00,
2013-02-23 01:45:00,27.0,24.5,29.99,WSW,247,0.0,2.0,90,0.00,,,0.00,Weather View 32 v70,2013-02-23 06:45:00,
2013-02-23 01:50:00,27.0,24.2,29.99,WSW,247,0.0,2.0,89,0.00,,,0.00,Weather View 32 v70,2013-02-23 06:50:00,
2013-02-23 01:55:00,27.0,24.5,29.99,WSW,247,0.0,2.0,90,0.00,,,0.00,Weather View 32 v70,2013-02-23 06:55:00,
2013-02-23 02:05:00,27.0,24.5,29.98,WSW,247,0.0,2.0,90,0.00,,,0.00,Weather View 32 v70,2013-02-23 07:05:00,
2013-02-23 02:10:00,27.0,24.5,29.98,WSW,247,0.0,2.0,90,0.00,,,0.00,Weather View 32 v70,2013-02-23 07:10:00,
2013-02-23 02:15:00,27.0,24.5,29.99,WSW,247,0.0,2.0,90,0.00,,,0.00,Weather View 32 v70,2013-02-23 07:15:00,
2013-02-23 02:20:00,27.0,24.5,29.99,WSW,247,0.0,0.0,90,0.00,,,0.00,Weather View 32 v70,2013-02-23 07:20:00,
2013-02-23 02:25:00,27.0,24.5,29.98,WSW,247,0.0,0.0,90,0.00,,,0.00,Weather View 32 v70,2013-02-23 07:25:00,
2013-02-23 02:30:00,27.0,24.5,29.98,WSW,247,0.0,0.0,90,0.00,,,0.00,Weather View 32 v70,2013-02-23 07:30:00,
2013-02-23 02:35:00,28.0,25.2,29.98,WSW,247,0.0,0.0,89,0.00,,,0.00,Weather View 32 v70,2013-02-23 07:35:00,
2013-02-23 02:40:00,28.0,25.4,29.98,WSW,247,0.0,0.0,90,0.00,,,0.00,Weather View 32 v70,2013-02-23 07:40:00,
2013-02-23 02:45:00,28.0,25.2,29.98,WSW,247,0.0,0.0,89,0.00,,,0.00,Weather View 32 v70,2013-02-23 07:45:00,
2013-02-23 02:50:00,27.0,24.2,29.98,WSW,247,0.0,0.0,89,0.00,,,0.00,Weather View 32 v70,2013-02-23 07:50:00,
2013-02-23 02:55:00,28.0,25.4,29.98,WSW,247,0.0,0.0,90,0.00,,,0.00,Weather View 32 v70,2013-02-23 07:55:00,
2013-02-23 03:00:00,27.0,24.5,29.98,WSW,247,0.0,0.0,90,0.00,,,0.00,Weather View 32 v70,2013-02-23 08:00:00,
2013-02-23 03:05:00,28.0,25.4,29.97,WSW,247,0.0,0.0,90,0.00,,,0.00,Weather View 32 v70,2013-02-23 08:05:00,
2013-02-23 03:10:00,27.0,24.5,29.97,WSW,247,0.0,0.0,90,0.00,,,0.00,Weather View 32 v70,2013-02-23 08:10:00,
2013-02-23 03:15:00,28.0,25.4,29.96,WSW,247,0.0,0.0,90,0.00,,,0.00,Weather View 32 v70,2013-02-23 08:15:00,
2013-02-23 03:20:00,28.0,25.2,29.96,WSW,247,0.0,0.0,89,0.00,,,0.00,Weather View 32 v70,2013-02-23 08:20:00,
2013-02-23 03:30:00,28.0,25.4,29.96,WSW,247,0.0,0.0,90,0.00,,,0.00,Weather View 32 v70,2013-02-23 08:30:00,
2013-02-23 03:35:00,28.0,25.4,29.96,WSW,247,0.0,0.0,90,0.00,,,0.00,Weather View 32 v70,2013-02-23 08:35:00,
2013-02-23 03:40:00,28.0,25.2,29.96,WSW,247,0.0,0.0,89,0.00,,,0.00,Weather View 32 v70,2013-02-23 08:40:00,
2013-02-23 03:45:00,28.0,24.9,29.96,WSW,247,0.0,0.0,88,0.00,,,0.00,Weather View 32 v70,2013-02-23 08:45:00,
2013-02-23 03:50:00,28.0,24.9,29.96,WSW,247,0.0,0.0,88,0.00,,,0.00,Weather View 32 v70,2013-02-23 08:50:00,
2013-02-23 03:55:00,28.0,25.4,29.95,WSW,247,0.0,0.0,90,0.00,,,0.00,Weather View 32 v70,2013-02-23 08:55:00,
2013-02-23 04:00:00,28.0,25.2,29.95,WSW,247,0.0,0.0,89,0.00,,,0.00,Weather View 32 v70,2013-02-23 09:00:00,
2013-02-23 04:05:00,28.0,24.9,29.95,WSW,247,0.0,0.0,88,0.00,,,0.00,Weather View 32 v70,2013-02-23 09:05:00,
2013-02-23 04:10:00,28.0,25.2,29.95,WSW,247,0.0,0.0,89,0.00,,,0.00,Weather View 32 v70,2013-02-23 09:10:00,
2013-02-23 04:15:00,28.0,25.4,29.95,WSW,247,0.0,0.0,90,0.00,,,0.00,Weather View 32 v70,2013-02-23 09:15:00,
2013-02-23 04:20:00,28.0,25.4,29.95,WSW,247,0.0,0.0,90,0.00,,,0.00,Weather View 32 v70,2013-02-23 09:20:00,
2013-02-23 04:25:00,28.0,25.2,29.95,WSW,247,0.0,0.0,89,0.00,,,0.00,Weather View 32 v70,2013-02-23 09:25:00,
2013-02-23 04:30:00,28.0,25.2,29.95,WSW,247,0.0,0.0,89,0.00,,,0.00,Weather View 32 v70,2013-02-23 09:30:00,
2013-02-23 04:35:00,28.0,25.2,29.95,WSW,247,0.0,0.0,89,0.00,,,0.00,Weather View 32 v70,2013-02-23 09:35:00,
2013-02-23 04:40:00,28.0,25.4,29.95,WSW,247,0.0,0.0,90,0.00,,,0.00,Weather View 32 v70,2013-02-23 09:40:00,
2013-02-23 04:45:00,28.0,25.4,29.95,WSW,247,0.0,0.0,90,0.00,,,0.00,Weather View 32 v70,2013-02-23 09:45:00,
2013-02-23 04:50:00,28.0,25.7,29.95,WSW,247,0.0,0.0,91,0.00,,,0.00,Weather View 32 v70,2013-02-23 09:50:00,
2013-02-23 05:00:00,28.0,25.4,29.94,WSW,247,0.0,0.0,90,0.00,,,0.00,Weather View 32 v70,2013-02-23 10:00:00,
2013-02-23 05:05:00,28.0,25.7,29.94,WSW,247,0.0,0.0,91,0.00,,,0.00,Weather View 32 v70,2013-02-23 10:05:00,
2013-02-23 05:10:00,28.0,25.4,29.94,WSW,247,0.0,0.0,90,0.00,,,0.00,Weather View 32 v70,2013-02-23 10:10:00,
2013-02-23 05:20:00,28.0,25.4,29.94,WSW,247,0.0,0.0,90,0.00,,,0.00,Weather View 32 v70,2013-02-23 10:20:00,
2013-02-23 05:25:00,28.0,25.7,29.94,WSW,247,0.0,0.0,91,0.00,,,0.00,Weather View 32 v70,2013-02-23 10:25:00,
2013-02-23 05:30:00,28.0,25.4,29.94,WSW,247,0.0,0.0,90,0.00,,,0.00,Weather View 32 v70,2013-02-23 10:30:00,
2013-02-23 05:35:00,28.0,25.4,29.94,WSW,247,0.0,0.0,90,0.00,,,0.00,Weather View 32 v70,2013-02-23 10:35:00,
2013-02-23 05:45:00,28.0,25.4,29.94,WSW,247,0.0,0.0,90,0.00,,,0.00,Weather View 32 v70,2013-02-23 10:45:00,
2013-02-23 05:50:00,28.0,25.4,29.94,WSW,247,0.0,0.0,90,0.00,,,0.00,Weather View 32 v70,2013-02-23 10:50:00,
2013-02-23 05:55:00,28.0,25.4,29.94,WSW,247,0.0,0.0,90,0.00,,,0.00,Weather View 32 v70,2013-02-23 10:55:00,
2013-02-23 06:05:00,28.0,25.4,29.94,WSW,247,0.0,0.0,90,0.00,,,0.00,Weather View 32 v70,2013-02-23 11:05:00,
2013-02-23 06:10:00,28.0,25.7,29.94,WSW,247,0.0,0.0,91,0.00,,,0.00,Weather View 32 v70,2013-02-23 11:10:00,
2013-02-23 06:15:00,28.0,25.7,29.94,WSW,247,0.0,0.0,91,0.00,,,0.00,Weather View 32 v70,2013-02-23 11:15:00,
2013-02-23 06:23:00,28.0,25.7,29.94,WSW,247,0.0,0.0,91,0.00,,,0.00,Weather View 32 v70,2013-02-23 11:23:00,
2013-02-23 06:30:00,28.0,26.0,29.94,WSW,247,0.0,0.0,92,0.00,,,0.00,Weather View 32 v70,2013-02-23 11:30:00,
2013-02-23 06:35:00,28.0,26.0,29.93,WSW,247,0.0,0.0,92,0.00,,,0.00,Weather View 32 v70,2013-02-23 11:35:00,
2013-02-23 06:40:00,28.0,25.7,29.93,WSW,247,0.0,0.0,91,0.00,,,0.00,Weather View 32 v70,2013-02-23 11:40:00,
2013-02-23 06:50:00,28.0,25.7,29.92,WSW,247,0.0,0.0,91,0.00,,,0.00,Weather View 32 v70,2013-02-23 11:50:00,
2013-02-23 06:55:00,28.0,26.0,29.92,WSW,247,0.0,0.0,92,0.00,,,0.00,Weather View 32 v70,2013-02-23 11:55:00,
2013-02-23 07:00:00,28.0,26.0,29.92,WSW,247,0.0,0.0,92,0.00,,,0.00,Weather View 32 v70,2013-02-23 12:00:00,
2013-02-23 07:10:00,28.0,26.0,29.93,WSW,247,0.0,0.0,92,0.00,,,0.00,Weather View 32 v70,2013-02-23 12:10:00,
2013-02-23 07:15:00,28.0,25.7,29.93,WSW,247,0.0,0.0,91,0.00,,,0.00,Weather View 32 v70,2013-02-23 12:15:00,
2013-02-23 07:20:00,28.0,25.4,29.93,WSW,247,0.0,0.0,90,0.00,,,0.00,Weather View 32 v70,2013-02-23 12:20:00,
2013-02-23 07:25:00,29.0,26.2,29.92,WSW,247,0.0,0.0,89,0.00,,,0.00,Weather View 32 v70,2013-02-23 12:25:00,
2013-02-23 07:35:00,29.0,25.9,29.92,WSW,247,0.0,0.0,88,0.00,,,0.00,Weather View 32 v70,2013-02-23 12:35:00,
2013-02-23 07:40:00,29.0,25.9,29.92,WSW,247,0.0,0.0,88,0.00,,,0.00,Weather View 32 v70,2013-02-23 12:40:00,
2013-02-23 07:50:00,29.0,25.6,29.92,WSW,247,0.0,0.0,87,0.00,,,0.00,Weather View 32 v70,2013-02-23 12:50:00,
2013-02-23 07:55:00,29.0,25.6,29.93,WSW,247,0.0,0.0,87,0.00,,,0.00,Weather View 32 v70,2013-02-23 12:55:00,
2013-02-23 08:00:00,29.0,25.6,29.93,WSW,247,0.0,0.0,87,0.00,,,0.00,Weather View 32 v70,2013-02-23 13:00:00,
2013-02-23 08:10:00,30.0,26.6,29.91,WSW,247,0.0,1.0,87,0.00,,,0.00,Weather View 32 v70,2013-02-23 13:10:00,
2013-02-23 08:15:00,30.0,26.6,29.92,WSW,247,0.0,1.0,87,0.00,,,0.00,Weather View 32 v70,2013-02-23 13:15:00,
2013-02-23 08:20:00,30.0,26.3,29.92,WSW,247,0.0,1.0,86,0.00,,,0.00,Weather View 32 v70,2013-02-23 13:20:00,
2013-02-23 08:25:00,30.0,26.3,29.92,WSW,247,0.0,1.0,86,0.00,,,0.00,Weather View 32 v70,2013-02-23 13:25:00,
2013-02-23 08:35:00,30.0,26.0,29.92,WSW,247,0.0,1.0,85,0.00,,,0.00,Weather View 32 v70,2013-02-23 13:35:00,
2013-02-23 08:40:00,31.0,27.0,29.91,East,90,1.0,4.0,85,0.00,,,0.00,Weather View 32 v70,2013-02-23 13:40:00,
2013-02-23 08:45:00,31.0,27.0,29.91,East,90,0.0,4.0,85,0.00,,,0.00,Weather View 32 v70,2013-02-23 13:45:00,
2013-02-23 08:55:00,31.0,27.0,29.90,South,180,0.0,4.0,85,0.00,,,0.00,Weather View 32 v70,2013-02-23 13:55:00,
2013-02-23 09:00:00,31.0,27.0,29.90,South,180,0.0,4.0,85,0.00,,,0.00,Weather View 32 v70,2013-02-23 14:00:00,
2013-02-23 09:05:00,32.0,28.0,29.90,South,180,0.0,4.0,85,0.00,,,0.00,Weather View 32 v70,2013-02-23 14:05:00,
2013-02-23 09:15:00,32.0,27.7,29.90,SE,135,0.0,5.0,84,0.00,,,0.00,Weather View 32 v70,2013-02-23 14:15:00,
2013-02-23 09:20:00,32.0,28.0,29.90,SE,135,0.0,5.0,85,0.00,,,0.00,Weather View 32 v70,2013-02-23 14:20:00,
2013-02-23 09:25:00,33.0,28.7,29.88,South,180,1.0,5.0,84,0.00,,,0.00,Weather View 32 v70,2013-02-23 14:25:00,
2013-02-23 09:35:00,33.0,28.7,29.88,South,180,3.0,6.0,84,0.00,,,0.00,Weather View 32 v70,2013-02-23 14:35:00,
2013-02-23 09:40:00,33.0,28.7,29.88,South,180,1.0,6.0,84,0.00,,,0.00,Weather View 32 v70,2013-02-23 14:40:00,
2013-02-23 09:45:00,33.0,28.7,29.88,SSE,157,1.0,6.0,84,0.00,,,0.00,Weather View 32 v70,2013-02-23 14:45:00,
2013-02-23 09:50:00,33.0,28.7,29.88,SSE,157,3.0,6.0,84,0.00,,,0.00,Weather View 32 v70,2013-02-23 14:50:00,
2013-02-23 10:00:00,33.0,28.7,29.88,SSW,202,0.0,9.0,84,0.00,,,0.00,Weather View 32 v70,2013-02-23 15:00:00,
2013-02-23 10:05:00,33.0,28.4,29.88,South,180,4.0,9.0,83,0.00,,,0.00,Weather View 32 v70,2013-02-23 15:05:00,
2013-02-23 10:10:00,33.0,28.4,29.88,SE,135,4.0,9.0,83,0.00,,,0.00,Weather View 32 v70,2013-02-23 15:10:00,
2013-02-23 10:20:00,34.0,29.4,29.87,South,180,1.0,9.0,83,0.00,,,0.00,Weather View 32 v70,2013-02-23 15:20:00,
2013-02-23 10:25:00,34.0,29.4,29.87,SSE,157,0.0,9.0,83,0.00,,,0.00,Weather View 32 v70,2013-02-23 15:25:00,
2013-02-23 10:35:00,34.0,29.1,29.87,SE,135,4.0,9.0,82,0.00,,,0.00,Weather View 32 v70,2013-02-23 15:35:00,
2013-02-23 10:45:00,34.0,28.8,29.86,SW,225,4.0,10.0,81,0.00,,,0.00,Weather View 32 v70,2013-02-23 15:45:00,
2013-02-23 10:50:00,34.0,29.1,29.86,SW,225,0.0,10.0,82,0.00,,,0.00,Weather View 32 v70,2013-02-23 15:50:00,
2013-02-23 10:55:00,34.0,28.8,29.86,SE,135,3.0,10.0,81,0.00,,,0.00,Weather View 32 v70,2013-02-23 15:55:00,
2013-02-23 11:05:00,34.0,28.8,29.86,WSW,247,1.0,10.0,81,0.00,,,0.00,Weather View 32 v70,2013-02-23 16:05:00,
2013-02-23 11:10:00,34.0,28.5,29.86,SE,135,0.0,10.0,80,0.00,,,0.00,Weather View 32 v70,2013-02-23 16:10:00,
2013-02-23 11:15:00,35.0,29.5,29.84,SE,135,2.0,10.0,80,0.00,,,0.00,Weather View 32 v70,2013-02-23 16:15:00,
2013-02-23 11:25:00,35.0,29.1,29.84,East,90,5.0,10.0,79,0.00,,,0.00,Weather View 32 v70,2013-02-23 16:25:00,
2013-02-23 11:30:00,35.0,28.8,29.84,ESE,112,5.0,10.0,78,0.00,,,0.00,Weather View 32 v70,2013-02-23 16:30:00,
2013-02-23 11:35:00,35.0,28.5,29.84,South,180,3.0,10.0,77,0.00,,,0.00,Weather View 32 v70,2013-02-23 16:35:00,
2013-02-23 11:40:00,35.0,28.8,29.83,South,180,5.0,10.0,78,0.00,,,0.00,Weather View 32 v70,2013-02-23 16:40:00,
2013-02-23 11:55:00,35.0,28.8,29.83,SE,135,5.0,9.0,78,0.00,,,0.00,Weather View 32 v70,2013-02-23 16:55:00,
2013-02-23 12:00:00,35.0,28.5,29.82,South,180,3.0,9.0,77,0.00,,,0.00,Weather View 32 v70,2013-02-23 17:00:00,
2013-02-23 12:10:00,35.0,28.8,29.82,South,180,0.0,10.0,78,0.00,,,0.00,Weather View 32 v70,2013-02-23 17:10:00,
2013-02-23 12:15:00,35.0,28.8,29.82,SE,135,2.0,10.0,78,0.00,,,0.00,Weather View 32 v70,2013-02-23 17:15:00,
2013-02-23 12:20:00,35.0,28.8,29.82,WSW,247,2.0,10.0,78,0.00,,,0.00,Weather View 32 v70,2013-02-23 17:20:00,
2013-02-23 12:27:00,35.0,28.8,29.81,WSW,247,4.0,10.0,78,0.00,,,0.00,Weather View 32 v70,2013-02-23 17:27:00,
2013-02-23 12:35:00,36.0,29.8,29.80,SW,225,1.0,10.0,78,0.00,,,0.00,Weather View 32 v70,2013-02-23 17:35:00,
2013-02-23 12:40:00,35.0,29.1,29.80,SE,135,4.0,10.0,79,0.00,,,0.00,Weather View 32 v70,2013-02-23 17:40:00,
2013-02-23 12:45:00,35.0,29.1,29.80,SE,135,1.0,10.0,79,0.00,,,0.00,Weather View 32 v70,2013-02-23 17:45:00,
2013-02-23 12:55:00,35.0,29.1,29.80,South,180,5.0,10.0,79,0.00,,,0.00,Weather View 32 v70,2013-02-23 17:55:00,
2013-02-23 13:00:00,35.0,29.8,29.80,SSE,157,7.0,10.0,81,0.00,,,0.00,Weather View 32 v70,2013-02-23 18:00:00,
2013-02-23 13:05:00,35.0,29.8,29.80,SE,135,6.0,9.0,81,0.00,,,0.00,Weather View 32 v70,2013-02-23 18:05:00,
2013-02-23 13:15:00,35.0,29.8,29.79,South,180,5.0,9.0,81,0.00,,,0.00,Weather View 32 v70,2013-02-23 18:15:00,
2013-02-23 13:20:00,35.0,29.8,29.80,ESE,112,4.0,9.0,81,0.00,,,0.00,Weather View 32 v70,2013-02-23 18:20:00,
2013-02-23 13:25:00,35.0,29.8,29.80,SE,135,6.0,9.0,81,0.00,,,0.00,Weather View 32 v70,2013-02-23 18:25:00,
2013-02-23 13:30:00,35.0,29.8,29.79,SSE,157,4.0,9.0,81,0.00,,,0.00,Weather View 32 v70,2013-02-23 18:30:00,
2013-02-23 13:40:00,35.0,30.1,29.79,SSE,157,0.0,9.0,82,0.00,,,0.00,Weather View 32 v70,2013-02-23 18:40:00,
2013-02-23 13:45:00,35.0,30.1,29.79,SW,225,1.0,9.0,82,0.00,,,0.00,Weather View 32 v70,2013-02-23 18:45:00,
2013-02-23 13:50:00,35.0,30.1,29.79,South,180,1.0,9.0,82,0.00,,,0.00,Weather View 32 v70,2013-02-23 18:50:00,
2013-02-23 14:00:00,35.0,30.1,29.79,South,180,1.0,9.0,82,0.00,,,0.00,Weather View 32 v70,2013-02-23 19:00:00,
2013-02-23 14:05:00,35.0,30.1,29.79,SW,225,3.0,9.0,82,0.00,,,0.00,Weather View 32 v70,2013-02-23 19:05:00,
2013-02-23 14:15:00,35.0,29.8,29.79,SE,135,2.0,9.0,81,0.00,,,0.00,Weather View 32 v70,2013-02-23 19:15:00,
2013-02-23 14:20:00,35.0,29.8,29.79,West,270,1.0,9.0,81,0.00,,,0.00,Weather View 32 v70,2013-02-23 19:20:00,
2013-02-23 14:25:00,35.0,29.8,29.79,South,180,2.0,9.0,81,0.00,,,0.00,Weather View 32 v70,2013-02-23 19:25:00,
2013-02-23 14:30:00,35.0,29.8,29.79,South,180,4.0,9.0,81,0.00,,,0.00,Weather View 32 v70,2013-02-23 19:30:00,
2013-02-23 14:40:00,35.0,29.1,29.78,West,270,6.0,8.0,79,0.00,,,0.00,Weather View 32 v70,2013-02-23 19:40:00,
2013-02-23 14:45:00,35.0,29.1,29.78,SE,135,0.0,8.0,79,0.00,,,0.00,Weather View 32 v70,2013-02-23 19:45:00,
2013-02-23 14:50:00,35.0,29.5,29.77,NE,45,0.0,8.0,80,0.00,,,0.00,Weather View 32 v70,2013-02-23 19:50:00,
2013-02-23 15:00:00,35.0,29.8,29.77,South,180,0.0,9.0,81,0.00,,,0.00,Weather View 32 v70,2013-02-23 20:00:00,
2013-02-23 15:05:00,35.0,29.8,29.77,SE,135,1.0,9.0,81,0.00,,,0.00,Weather View 32 v70,2013-02-23 20:05:00,
2013-02-23 15:10:00,35.0,30.4,29.77,South,180,0.0,9.0,83,0.00,,,0.00,Weather View 32 v70,2013-02-23 20:10:00,
2013-02-23 15:20:00,35.0,30.4,29.77,SSW,202,1.0,9.0,83,0.00,,,0.00,Weather View 32 v70,2013-02-23 20:20:00,
2013-02-23 15:25:00,35.0,30.4,29.77,North,360,0.0,11.0,83,0.00,,,0.00,Weather View 32 v70,2013-02-23 20:25:00,
2013-02-23 15:30:00,35.0,30.4,29.76,SSE,157,1.0,11.0,83,0.00,,,0.00,Weather View 32 v70,2013-02-23 20:30:00,
2013-02-23 15:35:00,35.0,30.7,29.76,NW,315,3.0,11.0,84,0.00,,,0.00,Weather View 32 v70,2013-02-23 20:35:00,
2013-02-23 15:45:00,35.0,30.4,29.75,NW,315,0.0,11.0,83,0.00,,,0.00,Weather View 32 v70,2013-02-23 20:45:00,
2013-02-23 15:50:00,35.0,30.4,29.75,NW,315,2.0,11.0,83,0.00,,,0.00,Weather View 32 v70,2013-02-23 20:50:00,
2013-02-23 15:55:00,35.0,30.4,29.75,South,180,1.0,11.0,83,0.00,,,0.00,Weather View 32 v70,2013-02-23 20:55:00,
2013-02-23 16:05:00,35.0,30.7,29.75,West,270,2.0,11.0,84,0.00,,,0.00,Weather View 32 v70,2013-02-23 21:05:00,
2013-02-23 16:10:00,35.0,30.7,29.74,SSE,157,4.0,11.0,84,0.00,,,0.00,Weather View 32 v70,2013-02-23 21:10:00,
2013-02-23 16:15:00,35.0,30.9,29.74,West,270,0.0,11.0,85,0.00,,,0.00,Weather View 32 v70,2013-02-23 21:15:00,
2013-02-23 16:25:00,35.0,30.9,29.74,SSE,157,3.0,10.0,85,0.00,,,0.00,Weather View 32 v70,2013-02-23 21:25:00,
2013-02-23 16:30:00,35.0,30.9,29.74,NW,315,1.0,10.0,85,0.00,,,0.00,Weather View 32 v70,2013-02-23 21:30:00,
2013-02-23 16:35:00,35.0,31.2,29.74,ESE,112,2.0,10.0,86,0.00,,,0.00,Weather View 32 v70,2013-02-23 21:35:00,
2013-02-23 16:40:00,35.0,31.2,29.75,South,180,0.0,10.0,86,0.00,,,0.00,Weather View 32 v70,2013-02-23 21:40:00,
2013-02-23 16:50:00,35.0,31.5,29.75,South,180,3.0,10.0,87,0.00,,,0.00,Weather View 32 v70,2013-02-23 21:50:00,
2013-02-23 16:55:00,34.0,30.5,29.75,SE,135,6.0,10.0,87,0.00,,,0.00,Weather View 32 v70,2013-02-23 21:55:00,
2013-02-23 17:00:00,34.0,30.5,29.74,West,270,1.0,10.0,87,0.00,,,0.00,Weather View 32 v70,2013-02-23 22:00:00,
2013-02-23 17:10:00,34.0,30.5,29.73,East,90,1.0,10.0,87,0.00,,,0.00,Weather View 32 v70,2013-02-23 22:10:00,
2013-02-23 17:15:00,34.0,30.8,29.73,South,180,0.0,10.0,88,0.00,,,0.00,Weather View 32 v70,2013-02-23 22:15:00,
2013-02-23 17:25:00,34.0,30.8,29.74,NE,45,0.0,10.0,88,0.00,,,0.00,Weather View 32 v70,2013-02-23 22:25:00,
2013-02-23 17:30:00,34.0,30.8,29.74,SE,135,3.0,10.0,88,0.00,,,0.00,Weather View 32 v70,2013-02-23 22:30:00,
2013-02-23 17:35:00,34.0,30.8,29.74,SE,135,0.0,10.0,88,0.00,,,0.00,Weather View 32 v70,2013-02-23 22:35:00,
2013-02-23 17:40:00,34.0,31.1,29.73,SSW,202,3.0,10.0,89,0.00,,,0.00,Weather View 32 v70,2013-02-23 22:40:00,
2013-02-23 17:45:00,34.0,31.1,29.73,WSW,247,1.0,10.0,89,0.00,,,0.00,Weather View 32 v70,2013-02-23 22:45:00,
2013-02-23 17:55:00,34.0,31.1,29.73,SW,225,1.0,10.0,89,0.00,,,0.00,Weather View 32 v70,2013-02-23 22:55:00,
2013-02-23 18:00:00,34.0,31.4,29.73,WSW,247,2.0,10.0,90,0.00,,,0.00,Weather View 32 v70,2013-02-23 23:00:00,
2013-02-23 18:05:00,34.0,31.4,29.73,SE,135,5.0,9.0,90,0.00,,,0.00,Weather View 32 v70,2013-02-23 23:05:00,
2013-02-23 18:15:00,33.0,30.9,29.73,South,180,3.0,9.0,92,0.00,,,0.00,Weather View 32 v70,2013-02-23 23:15:00,
2013-02-23 18:20:00,33.0,31.5,29.73,SE,135,1.0,9.0,94,0.00,,,0.00,Weather View 32 v70,2013-02-23 23:20:00,
2013-02-23 18:25:00,33.0,31.7,29.73,South,180,4.0,8.0,95,0.00,,,0.00,Weather View 32 v70,2013-02-23 23:25:00,
2013-02-23 18:30:00,33.0,31.7,29.73,South,180,2.0,8.0,95,0.00,,,0.00,Weather View 32 v70,2013-02-23 23:30:00,
2013-02-23 18:40:00,32.0,30.7,29.72,SE,135,0.0,8.0,95,0.00,,,0.00,Weather View 32 v70,2013-02-23 23:40:00,
2013-02-23 18:45:00,32.0,30.7,29.72,SE,135,0.0,8.0,95,0.00,,,0.00,Weather View 32 v70,2013-02-23 23:45:00,
2013-02-23 21:25:00,31.0,29.7,29.67,SE,135,0.0,1.0,95,0.00,,,0.00,Weather View 32 v70,2013-02-24 02:25:00,
2013-02-23 21:30:00,31.0,29.7,29.67,North,360,0.0,2.0,95,0.00,,,0.00,Weather View 32 v70,2013-02-24 02:30:00,
2013-02-23 21:35:00,31.0,29.7,29.67,SE,135,0.0,2.0,95,0.00,,,0.00,Weather View 32 v70,2013-02-24 02:35:00,
2013-02-23 21:40:00,31.0,29.7,29.67,SE,135,0.0,2.0,95,0.00,,,0.00,Weather View 32 v70,2013-02-24 02:40:00,
2013-02-23 21:45:00,31.0,29.7,29.67,SE,135,0.0,2.0,95,0.00,,,0.00,Weather View 32 v70,2013-02-24 02:45:00,
2013-02-23 21:55:00,31.0,29.7,29.68,SE,135,0.0,2.0,95,0.00,,,0.00,Weather View 32 v70,2013-02-24 02:55:00,
2013-02-23 22:00:00,31.0,29.7,29.67,SE,135,1.0,2.0,95,0.00,,,0.00,Weather View 32 v70,2013-02-24 03:00:00,
2013-02-23 22:05:00,31.0,29.7,29.67,SE,135,0.0,2.0,95,0.00,,,0.00,Weather View 32 v70,2013-02-24 03:05:00,
2013-02-23 22:15:00,31.0,29.7,29.66,SE,135,1.0,2.0,95,0.00,,,0.00,Weather View 32 v70,2013-02-24 03:15:00,
2013-02-23 22:20:00,31.0,29.7,29.65,SE,135,0.0,2.0,95,0.00,,,0.00,Weather View 32 v70,2013-02-24 03:20:00,
2013-02-23 22:25:00,31.0,29.7,29.65,SE,135,0.0,2.0,95,0.00,,,0.00,Weather View 32 v70,2013-02-24 03:25:00,
2013-02-23 22:30:00,31.0,29.7,29.65,SE,135,0.0,2.0,95,0.00,,,0.00,Weather View 32 v70,2013-02-24 03:30:00,
2013-02-23 22:35:00,31.0,29.7,29.65,SE,135,0.0,2.0,95,0.00,,,0.00,Weather View 32 v70,2013-02-24 03:35:00,
2013-02-23 22:40:00,31.0,29.7,29.65,SE,135,0.0,2.0,95,0.00,,,0.00,Weather View 32 v70,2013-02-24 03:40:00,
2013-02-23 22:45:00,31.0,29.7,29.65,SE,135,0.0,2.0,95,0.00,,,0.00,Weather View 32 v70,2013-02-24 03:45:00,